Location: Unspecified
(0.0000°N, 0.0000°E)
Time: 20:45:06
(UTC+02:00)

ISS - All Passes

Search period start: 06 May 2016 00:00
Search period end: 16 May 2016 00:00
Orbit: 402 x 405 km, 51.6° (Epoch: 06 May)

Date Brightness Start Highest point End Pass type
(mag) Time Alt. Az. Time Alt. Az. Time Alt. Az.
06 May - 04:20:00 10° S 04:22:49 27° SE 04:25:38 10° ENE night (unlit)
06 May - 15:54:21 10° NNE 15:56:31 17° NE 15:58:42 10° E daylight
06 May - 17:30:55 10° W 17:32:47 14° SW 17:34:38 10° SSW daylight
07 May - 03:29:38 10° SE 03:30:18 10° SE 03:30:59 10° ESE night (unlit)
07 May - 05:03:57 10° WSW 05:06:35 22° NW 05:09:12 10° N night (unlit)
07 May - 16:37:13 10° NW 16:40:16 37° SW 16:43:20 10° SSE daylight
08 May - 04:10:51 10° SW 04:14:05 67° NW 04:17:19 10° NNE night (unlit)
08 May - 15:44:34 10° NNW 15:47:47 67° NE 15:51:01 10° SE daylight
09 May - 03:18:32 10° SSW 03:21:35 37° SE 03:24:39 10° NE night (unlit)
09 May - 14:52:40 10° N 14:55:17 22° NE 14:57:55 10° ESE daylight
09 May - 16:30:50 10° WSW 16:31:33 11° SW 16:32:15 10° SW daylight
10 May - 02:27:13 10° SSE 02:29:04 14° SE 02:30:54 10° E night (unlit)
10 May - 04:03:08 10° W 04:05:19 17° NW 04:07:30 10° NNW night (unlit)
10 May - 15:36:11 10° WNW 15:39:00 27° SW 15:41:49 10° S daylight
11 May - 03:09:38 10° SW 03:12:47 45° NW 03:15:55 10° NNE night (unlit)
11 May - 14:43:13 10° NW 14:46:28 84° SW 14:49:43 10° SSE daylight
12 May - 02:17:03 10° SSW 02:20:16 53° SE 02:23:27 10° NE night (unlit)
12 May - 13:51:01 10° N 13:53:56 30° NE 13:56:51 10° ESE daylight
13 May - 01:25:18 10° S 01:27:42 19° SE 01:30:06 10° ENE night (unlit)
13 May - 03:02:29 10° W 03:03:57 12° NW 03:05:25 10° NNW night (unlit)
13 May - 13:00:05 10° NNE 13:01:21 12° NE 13:02:38 10° ENE daylight
13 May - 14:35:09 10° WNW 14:37:36 20° SW 14:40:05 10° S daylight
14 May - 02:08:25 10° WSW 02:11:23 32° NW 02:14:20 10° N night (unlit)
14 May - 13:41:51 10° NW 13:45:02 57° SW 13:48:15 10° SSE daylight
15 May - 01:15:33 10° SSW 01:18:49 78° ESE 01:22:03 10° NE night (unlit)
15 May - 12:49:22 10° NNW 12:52:28 42° NE 12:55:35 10° SE daylight
